Regional Weather Roundup
Issued by NWS

Home | Current Version | Previous Version | Graphics & Text | Print | Product List | Glossary On
Versions: 1 2 3 4 5 6 7 8 9 10 11 12 13 14 15 16 17 18 19 20 21 22 23 24 25 26 27 28 29 30 31 32 33 34 35 36 37 38 39 40 41 42 43 44 45 46 47 48 49 50
000
ASUS45 KBOU 222307
RWRCO

WEATHER ROUNDUP FOR COLORADO
NATIONAL WEATHER SERVICE DENVER/BOULDER CO
400 PM MST WED FEB 22 2017

NOTE: "FAIR" INDICATES FEW OR NO CLOUDS BELOW 12000 FEET WITH NO
SIGNIFICANT WEATHER AND/OR OBSTRUCTIONS TO VISIBILITY.

COZ001>005-013-030-031-230000-
...NORTHWEST COLORADO...

CITY           SKY/WX    TMP DP  RH WIND       PRES   REMARKS
CRAIG          CLOUDY    36  27  69 N5        29.81F
HAYDEN         CLOUDY    34  27  75 W5        29.80F WCI  30
MEEKER         FAIR      49  30  48 NW7       29.73F
MOUNT WERNER   NOT AVBL
STEAMBOAT SPGS FAIR      35  29  78 CALM      29.80F
WALDEN         NOT AVBL
$$

COZ006>008-011-230000-
...WEST CENTRAL VALLEYS...

CITY           SKY/WX    TMP DP  RH WIND       PRES   REMARKS
GRAND JUNCTION PTSUNNY   60  28  29 NW13G18   29.68F
MONTROSE       FAIR      58  21  24 SW30G37   29.77F
EAGLE          LGT RAIN  48  28  46 W10       29.77F
RIFLE          CLOUDY    56  27  32 W14       29.70F
DELTA          FAIR      65  14  13 S23G32    29.71F
NUCLA          FAIR      55  18  22 SW21G31   29.80F
$$

COZ017>023-064>068-230000-
...SOUTHWEST COLORADO...

CITY           SKY/WX    TMP DP  RH WIND       PRES   REMARKS
DURANGO        FAIR      53  26  35 SW10      29.88F
CORTEZ         FAIR      59  21  23 SW20G33   29.83F
PAGOSA SPRINGS FAIR      48  25  41 SW6       29.92F
TELLURIDE      FAIR      43  15  32 S9G28     29.91F
WOLF CREEK PAS CLOUDY    23  23 100 SW29G44   30.03R FOG     WCI   6
$$

COZ009-010-012-014-032>034-037-058>063-230000-
...CENTRAL COLORADO...

CITY           SKY/WX    TMP DP  RH WIND       PRES   REMARKS
ASPEN          LGT RAIN  44  25  47 S16G25    29.79F
BUENA VISTA    FAIR      51   2  13 S25G36    29.81F
COPPER MTN     NOT AVBL
BERTHOUD PASS  PTSUNNY   27  16  63 W16G29    29.91F WCI  14
COTTONWOOD PAS FAIR      45  -2  14 SW24G41   29.85F
GUNNISON       FAIR      46  17  31 W14G21    29.82F
KREMMLING      FAIR      54  23  30 SW21G26   29.78F
LEADVILLE      PTSUNNY   36   9  32 SW10G21   29.84F
MONARCH PASS   FAIR      28  14  54 W22G36    30.04F WCI  15
SALIDA         FAIR      53  13  20 W13G21    29.90S
SUNLIGHT       NOT AVBL
WILKERSON PASS FAIR      36   7  30 SW15G30   29.92F
$$

COZ069>075-230000-
...SAN LUIS VALLEY/SANGRE DE CRISTO MOUNTAINS...

CITY           SKY/WX    TMP DP  RH WIND       PRES   REMARKS
ALAMOSA        FAIR      49  27  42 SW25G32   29.90F
LA VETA PASS   FAIR      36  18  48 NE23G44   29.94F
SAGUACHE       FAIR      52  14  22 W15       29.84F
$$

COZ035-036-038>040-230000-
...NORTHERN COLORADO FRONT RANGE...

CITY           SKY/WX    TMP DP  RH WIND       PRES   REMARKS
DENVER INTL AP FAIR      55  20  25 E25       29.73F
DMNS CITY PARK   N/A     55  19  24 NE17      29.73S
AURORA         MOSUNNY   56  20  25 E17G25    29.73F
FRONT RANGE AP NOT AVBL
ERIE MUNI ARPT FAIR      58  19  21 E9G20     29.74F
BOULDER MUN AP FAIR      55  21  26 E5        29.74S
CENTENNIAL     FAIR      55  20  25 E12G25    29.73F
BROOMFIELD     MOSUNNY   54  21  28 NE12      29.76S
FORT COLLINS   FAIR      54  23  30 E18G24    29.75S
LONGMONT       FAIR      61  21  21 E9        29.76S
$$

COZ041-046-047-076>085-087-088-230000-
...PIKES PEAK/PALMER DIVIDE AND SOUTHERN FOOTHILLS...

CITY           SKY/WX    TMP DP  RH WIND       PRES   REMARKS
COLO. SPRINGS  FAIR      61  11  14 S13       29.73F
A. F. ACADEMY  FAIR      62  -3   7 W20G31    29.73F
SCHRIEVER AFB  FAIR      60  10  14 SW15G28   29.74F
ELLICOTT       FAIR     N/A N/A N/A MISG      29.72F
FALCON         FAIR      61   9  12 S17G31    29.76F
FORT CARSON    FAIR      67  10  11 S23G29    29.69F
LIMON          FAIR      59  20  22 E17G25    29.73F
MONUMENT HILL  FAIR      55   3  12 W26G32    29.77F
TRINIDAD       FAIR      65   4   9 W21G35    29.80F
$$

COZ042>045-048>051-090-091-230000-
...NORTHEAST COLORADO...

CITY           SKY/WX    TMP DP  RH WIND       PRES   REMARKS
GREELEY ARPT   FAIR      54  22  28 NE20      29.76S
AKRON          FAIR      58  17  20 NE5       29.76F
BURLINGTON     FAIR      63  23  21 E9        29.75F
WRAY           NOT AVBL
STERLING       FAIR      59  19  21 N9G16     29.75F
HOLYOKE        FAIR      64  14  14 N6        29.75S
FORT MORGAN    FAIR      58  16  19 N8        29.76F
$$

COZ086-089-092>099-230000-
...SOUTHEAST COLORADO...

CITY           SKY/WX    TMP DP  RH WIND       PRES   REMARKS
PUEBLO         FAIR      70  16  12 SW25G38   29.68F
LA JUNTA       FAIR      73  15  11 W26       29.70F
LAMAR          FAIR      71  23  16 SE15      29.68F
SPRINGFIELD      N/A     71  21  15 E13       29.73F
$$



USA.gov is the U.S. government's official web portal to all federal, state and local government web resources and services.